Doha, Qatar

12:21 PM +03 on December 18, 2017 (GMT +0300)
Doha International

Weather History for OTBD - July, 2013

Change the Weather History Date:

Sunday, July 21, 2013

  Actual Average Record
Temperature  
Mean Temperature 97 °F -  
Max Temperature 104 °F 106 °F 116 °F (2011)
Min Temperature 90 °F 84 °F 86 °F (1996)
Cooling Degree Days 32    
Growing Degree Days 47 (Base 50)    
Moisture  
Dew Point 78 °F    
Average Humidity 56    
Maximum Humidity 75    
Minimum Humidity 35    
Precipitation  
Precipitation 0.00 in 0.00 in - ()
Sea Level Pressure  
Sea Level Pressure 29.39 in    
Wind  
Wind Speed 10 mph ()    
Max Wind Speed 18 mph    
Max Gust Speed -    
Visibility 5.5 miles    
Events      
Averages and records for this station are not official NWS values.
T = Trace of Precipitation, MM = Missing Value Source: Averaged Metar Reports

Daily Weather History Graph

Daily Weather History Graph

Search for Another Location

Airport or City:

Trip Planner

Search our weather history database for the weather conditions in past years. The results will help you decide how hot, cold, wet, or windy it might be!

Date:

Astronomy

Jul. 21, 2013 Rise Set
Actual Time 4:55 AM +03 6:24 PM +03
Civil Twilight 4:30 AM +03 6:49 PM +03
Nautical Twilight 4:00 AM +03 7:19 PM +03
Astronomical Twilight 3:29 AM +03 7:50 PM +03
Moon 5:04 PM +03 (7/21) 3:13 AM +03 (7/21)
Length of Visible Light 14h 19m
Length of Day
13h 28m
Waxing Gibbous, 97% of the Moon is Illuminated
Jul 21
Waxing Gibbous
Jul 22
Full
Jul 29
Last Quarter
Aug 7
New
Aug 14
First Quarter

Hourly Weather History & Observations

Time (+03) Temp. Heat Index Dew Point Humidity Pressure Visibility Wind Dir Wind Speed Gust Speed Precip Events Conditions
12:00 AM 93.2 °F 117.1 °F 82.4 °F 71% 29.39 in 5.0 mi North 9.2 mph - N/A   Partly Cloudy
1:00 AM 91.4 °F 114.3 °F 82.4 °F 75% 29.36 in 5.0 mi NNW 10.4 mph - N/A   Unknown
2:00 AM 91.4 °F 114.3 °F 82.4 °F 75% 29.36 in 5.0 mi NNW 10.4 mph - N/A   Unknown
3:00 AM 91 °F - 82 °F 70% 29.37 in 5 mi NNW 9.2 mph - -   Haze
3:00 AM 91.4 °F 114.3 °F 82.4 °F 75% 29.36 in 5.0 mi NNW 9.2 mph - N/A   Unknown
3:30 AM 91.4 °F 111.0 °F 80.6 °F 71% 29.36 in 5.0 mi NNW 6.9 mph - N/A   Unknown
4:00 AM 91.4 °F 107.2 °F 78.8 °F 66% 29.36 in 5.6 mi NNW 6.9 mph - N/A   Unknown
5:00 AM 91.4 °F 107.2 °F 78.8 °F 66% 29.39 in - NNW 6.9 mph - N/A   Clear
6:00 AM 93.2 °F 110.2 °F 78.8 °F 63% 29.42 in - NNW 5.8 mph - N/A   Clear
6:30 AM 93.2 °F 110.2 °F 78.8 °F 63% 29.42 in - NNW 6.9 mph - N/A   Clear
7:00 AM 95.0 °F 112.2 °F 78.8 °F 59% 29.42 in - NNW 6.9 mph - N/A   Clear
7:30 AM 95.0 °F 112.2 °F 78.8 °F 59% 29.42 in - North 8.1 mph - N/A   Clear
8:00 AM 96.8 °F 118.6 °F 80.6 °F 60% 29.42 in - North 9.2 mph - N/A   Clear
8:30 AM 96.8 °F 118.6 °F 80.6 °F 60% 29.42 in - North 10.4 mph - N/A   Clear
9:00 AM 97 °F - 81 °F 52% 29.43 in 6 mi North 10.4 mph - -  
9:00 AM 96.8 °F 118.6 °F 80.6 °F 60% 29.42 in - North 10.4 mph - N/A   Clear
9:30 AM 98.6 °F 120.3 °F 80.6 °F 56% 29.42 in - North 12.7 mph - N/A   Clear
10:00 AM 100.4 °F 122.7 °F 80.6 °F 53% 29.42 in - North 12.7 mph - N/A   Clear
10:30 AM 100.4 °F 119.5 °F 78.8 °F 50% 29.42 in - North 12.7 mph - N/A   Clear
11:00 AM 100.4 °F 119.5 °F 78.8 °F 50% 29.42 in - North 12.7 mph - N/A   Clear
11:30 AM 100.4 °F 119.5 °F 78.8 °F 50% 29.42 in - NNE 12.7 mph - N/A   Clear
12:00 PM 102.2 °F 116.3 °F 75.2 °F 42% 29.42 in - NNE 13.8 mph - N/A   Clear
12:30 PM 104.0 °F 114.0 °F 71.6 °F 35% 29.39 in - NNE 13.8 mph - N/A   Clear
1:00 PM 100.4 °F 113.6 °F 75.2 °F 44% 29.39 in - NNE 13.8 mph - N/A   Clear
1:30 PM 102.2 °F 116.3 °F 75.2 °F 42% 29.39 in - NNE 13.8 mph - N/A   Clear
2:00 PM 102.2 °F 116.3 °F 75.2 °F 42% 29.39 in - NNE 13.8 mph - N/A   Clear
3:00 PM 100 °F - 77 °F 38% 29.38 in 7 mi North 16.1 mph - -  
3:00 PM 100.4 °F 116.5 °F 77.0 °F 47% 29.36 in - North 16.1 mph - N/A   Clear
3:30 PM 100.4 °F 122.7 °F 80.6 °F 53% 29.36 in - North 17.3 mph - N/A   Clear
4:00 PM 98.6 °F 117.2 °F 78.8 °F 53% 29.36 in - North 18.4 mph - N/A   Clear
4:30 PM 98.6 °F 120.3 °F 80.6 °F 56% 29.36 in - North 16.1 mph - N/A   Clear
5:00 PM 98.6 °F 120.3 °F 80.6 °F 56% 29.36 in - North 17.3 mph - N/A   Clear
5:30 PM 96.8 °F 118.6 °F 80.6 °F 60% 29.36 in - North 17.3 mph - N/A   Clear
6:00 PM 96.8 °F 118.6 °F 80.6 °F 60% 29.36 in - North 13.8 mph - N/A   Clear
6:30 PM 96.8 °F 118.6 °F 80.6 °F 60% 29.39 in - North 15.0 mph - N/A   Clear
7:00 PM 96.8 °F 118.6 °F 80.6 °F 60% 29.39 in - North 12.7 mph - N/A   Clear
7:30 PM 96.8 °F 107.3 °F 73.4 °F 47% 29.39 in - North 12.7 mph - N/A   Clear
8:00 PM 96.8 °F 107.3 °F 73.4 °F 47% 29.39 in - North 9.2 mph - N/A   Clear
8:30 PM 96.8 °F 105.1 °F 71.6 °F 44% 29.42 in - North 9.2 mph - N/A   Clear
9:00 PM 95 °F - 75 °F 43% 29.42 in 6 mi North 8.1 mph - -   Clear
9:00 PM 95.0 °F 107.4 °F 75.2 °F 53% 29.42 in - North 8.1 mph - N/A   Clear
9:30 PM 95.0 °F 107.4 °F 75.2 °F 53% 29.42 in - NNW 8.1 mph - N/A   Clear
10:00 PM 95.0 °F 109.7 °F 77.0 °F 56% 29.39 in - NNW 5.8 mph - N/A   Clear
10:30 PM 93.2 °F 107.2 °F 77.0 °F 59% 29.39 in - North 3.5 mph - N/A   Clear
11:00 PM 93.2 °F 107.2 °F 77.0 °F 59% 29.39 in - NNW 4.6 mph - N/A   Clear
11:30 PM 93.2 °F 107.2 °F 77.0 °F 59% 29.39 in - North 3.5 mph - N/A   Clear